Change the Weather History Date:

Sunday, November 4, 2012

  Actual Average Record
Temperature  
Mean Temperature 42 °F -  
Max Temperature 55 °F 50 °F 73 °F (2001)
Min Temperature 30 °F 28 °F 10 °F (2003)
Degree Days  
Heating Degree Days 22    
Moisture  
Dew Point 32 °F    
Average Humidity 79    
Maximum Humidity 93    
Minimum Humidity 49    
Precipitation  
Precipitation 0.02 in - - ()
Sea Level Pressure  
Sea Level Pressure 30.16 in    
Wind  
Wind Speed 11 mph (NW)    
Max Wind Speed 26 mph    
Max Gust Speed 33 mph    
Visibility 9 miles    
Events Fog , Rain    
Averages and records for this station are not official NWS values.
T = Trace of Precipitation, MM = Missing Value Source: NWS Daily Summary

Daily Weather History Graph

Daily Weather History Graph

Search for Another Location

Airport or City:

Trip Planner

Search our weather history database for the weather conditions in past years. The results will help you decide how hot, cold, wet, or windy it might be!

Date:

Astronomy

Nov. 04, 2012 Rise Set
Actual Time 6:43 AM MST 4:37 PM MST
Civil Twilight 6:11 AM MST 5:08 PM MST
Nautical Twilight 5:35 AM MST 5:44 PM MST
Astronomical Twilight 5:00 AM MST 6:19 PM MST
Moon 9:14 PM MST (11/4) 11:32 AM MST (11/4)
Length of Visible Light 10h 57m
Length of Day
9h 53m
Waning Gibbous, 71% of the Moon is Illuminated
Nov 4
Waning Gibbous
Nov 6
Last Quarter
Nov 13
New
Nov 20
First Quarter
Nov 28
Full

Hourly Weather History & Observations

Time (MST) Temp. Windchill Dew Point Humidity Pressure Visibility Wind Dir Wind Speed Gust Speed Precip Events Conditions
12:51 AM 33.1 °F 23.9 °F 30.0 °F 89% 30.12 in 9.0 mi SE 12.7 mph - N/A   Overcast
1:51 AM 34.0 °F 26.6 °F 30.9 °F 89% 30.10 in 10.0 mi SE 9.2 mph - N/A   Overcast
1:36 AM 33.8 °F 24.3 °F 30.2 °F 87% 30.03 in 10.0 mi SE 13.8 mph - N/A   Overcast
1:51 AM 35.1 °F 26.4 °F 30.9 °F 85% 30.09 in 10.0 mi SE 12.7 mph - N/A   Overcast
2:51 AM 35.1 °F 28.6 °F 32.0 °F 89% 30.07 in 10.0 mi ESE 8.1 mph - N/A   Overcast
3:51 AM 36.0 °F 30.3 °F 32.0 °F 86% 30.08 in 10.0 mi SE 6.9 mph - 0.00 in Rain Light Rain
4:51 AM 36.0 °F 30.3 °F 32.0 °F 86% 30.08 in 10.0 mi SE 6.9 mph - 0.00 in Rain Light Rain
6:51 AM 37.0 °F - 33.1 °F 86% 30.08 in 10.0 mi Calm Calm - 0.00 in Rain Light Rain
7:51 AM 42.1 °F 36.1 °F 37.0 °F 82% 30.09 in 10.0 mi WSW 10.4 mph - 0.01 in Rain Light Rain
9:51 AM 48.0 °F - 41.0 °F 77% 30.09 in 10.0 mi West 16.1 mph - 0.00 in   Partly Cloudy
10:51 AM 51.1 °F - 39.0 °F 63% 30.09 in 10.0 mi WNW 19.6 mph 29.9 mph N/A   Clear
11:51 AM 53.1 °F - 37.9 °F 57% 30.09 in 10.0 mi WNW 21.9 mph 32.2 mph 0.01 in   Clear
12:51 PM 55.0 °F - 36.0 °F 49% 30.09 in 10.0 mi WNW 26.5 mph 33.4 mph N/A   Clear
1:51 PM 54.0 °F - 35.1 °F 49% 30.11 in 10.0 mi NW 23.0 mph 31.1 mph N/A   Clear
2:51 PM 53.1 °F - 36.0 °F 52% 30.14 in 10.0 mi NW 21.9 mph 32.2 mph N/A   Clear
3:51 PM 48.0 °F - 36.0 °F 63% 30.19 in 10.0 mi NW 20.7 mph 29.9 mph N/A   Clear
4:51 PM 42.1 °F 34.5 °F 35.1 °F 76% 30.24 in 10.0 mi NNW 15.0 mph - N/A   Clear
5:51 PM 39.0 °F 32.3 °F 33.1 °F 79% 30.26 in 10.0 mi NNW 10.4 mph - N/A   Clear
6:51 PM 37.0 °F 30.4 °F 32.0 °F 82% 30.29 in 10.0 mi NNW 9.2 mph - N/A   Clear
7:51 PM 35.1 °F 31.0 °F 30.9 °F 85% 30.29 in 10.0 mi NW 4.6 mph - N/A   Clear
8:51 PM 33.1 °F 28.7 °F 30.0 °F 89% 30.29 in 10.0 mi WNW 4.6 mph - N/A   Clear
9:51 PM 30.9 °F - 28.0 °F 89% 30.27 in 8.0 mi Calm Calm - N/A   Clear
10:10 PM 30.2 °F - 26.6 °F 86% 30.22 in 5.0 mi Calm Calm - N/A   Scattered Clouds
10:18 PM 30.2 °F - 26.6 °F 86% 30.23 in 6.0 mi Calm Calm - N/A   Mostly Cloudy
10:34 PM 30.2 °F - 28.4 °F 93% 30.23 in 1.2 mi Calm Calm - N/A   Overcast
10:40 PM 30.2 °F 26.7 °F 28.4 °F 93% 30.23 in 0.2 mi NE 3.5 mph - N/A Fog Light Freezing Fog
10:51 PM 32.0 °F - 28.9 °F 88% 30.27 in - Calm Calm - N/A   Overcast